BGA8411 ROAH-RJFF

Flight info

Callsign BGA8411
Flight time 1h 29m
Altitude 41000
Route AMAMI Y25 GOKYO/N0469F400 Y25 ISKUP
Aircraft A337/H-SDE3GHIJ2J3J5M1RVWXY/LB2D1

Departure

Time 2026-04-26 18:51
Airport Naha International Airport (ROAH)

Arrival

Time 2026-04-26 20:21
Airport Fukuoka Airport (RJFF)
Time Latitude Longitude Altitude Speed Heading
2026-04-26 18:37 26.21676 127.65301 31 ft 0 kts 157°
2026-04-26 18:37 26.21671 127.65303 30 ft 5 kts 158°
2026-04-26 18:37 26.21667 127.65304 30 ft 0 kts 161°
2026-04-26 18:38 26.21662 127.65300 30 ft 1 kts 200°
2026-04-26 18:38 26.21661 127.65291 29 ft 1 kts 257°
2026-04-26 18:38 26.21663 127.65253 31 ft 10 kts 270°
2026-04-26 18:38 26.21660 127.65142 30 ft 18 kts 266°
2026-04-26 18:39 26.21628 127.64986 31 ft 23 kts 245°
2026-04-26 18:39 26.21526 127.64847 30 ft 24 kts 224°
2026-04-26 18:39 26.21392 127.64754 29 ft 22 kts 187°
2026-04-26 18:39 26.21202 127.64753 29 ft 32 kts 179°
2026-04-26 18:40 26.21004 127.64749 29 ft 20 kts 198°
2026-04-26 18:40 26.20871 127.64740 29 ft 22 kts 177°
2026-04-26 18:40 26.20682 127.64749 29 ft 29 kts 175°
2026-04-26 18:40 26.20541 127.64757 26 ft 17 kts 178°
2026-04-26 18:41 26.20453 127.64761 29 ft 6 kts 177°
2026-04-26 18:41 26.20398 127.64764 29 ft 12 kts 177°
2026-04-26 18:41 26.20275 127.64771 30 ft 23 kts 177°
2026-04-26 18:41 26.20130 127.64776 29 ft 16 kts 178°
2026-04-26 18:42 26.20011 127.64782 29 ft 18 kts 178°
2026-04-26 18:42 26.19923 127.64785 29 ft 20 kts 177°
2026-04-26 18:42 26.19778 127.64792 29 ft 22 kts 178°
2026-04-26 18:42 26.19621 127.64800 29 ft 23 kts 178°
2026-04-26 18:43 26.19492 127.64775 28 ft 10 kts 232°
2026-04-26 18:43 26.19480 127.64719 28 ft 0 kts 265°
2026-04-26 18:43 26.19480 127.64718 28 ft 0 kts 265°
2026-04-26 18:49 26.19480 127.64715 28 ft 5 kts 265°
2026-04-26 18:49 26.19478 127.64615 25 ft 11 kts 278°
2026-04-26 18:50 26.19493 127.64605 30 ft 7 kts 338°
2026-04-26 18:50 26.19522 127.64599 28 ft 2 kts 354°
2026-04-26 18:50 26.19672 127.64591 27 ft 60 kts 358°
2026-04-26 18:50 26.20411 127.64559 33 ft 151 kts 357°
2026-04-26 18:51 26.21661 127.64486 491 ft 203 kts 355°
2026-04-26 18:51 26.23156 127.64340 1582 ft 220 kts 353°
2026-04-26 18:51 26.24684 127.64127 3203 ft 221 kts 347°
2026-04-26 18:51 26.26111 127.63550 4851 ft 217 kts 328°
2026-04-26 18:52 26.27346 127.62626 6461 ft 210 kts 326°
2026-04-26 18:52 26.28602 127.61829 7900 ft 206 kts 332°
2026-04-26 18:52 26.29920 127.61102 9018 ft 218 kts 331°
2026-04-26 18:52 26.31301 127.60296 9996 ft 233 kts 332°
2026-04-26 18:53 26.32820 127.59479 10717 ft 250 kts 332°
2026-04-26 18:53 26.34408 127.58593 11608 ft 259 kts 330°
2026-04-26 18:53 26.36011 127.57646 12592 ft 263 kts 328°
2026-04-26 18:53 26.37627 127.56656 13593 ft 266 kts 327°
2026-04-26 18:54 26.39265 127.55630 14353 ft 277 kts 326°
2026-04-26 18:54 26.40817 127.54257 14730 ft 295 kts 307°
2026-04-26 18:54 26.41695 127.52134 15037 ft 315 kts 281°
2026-04-26 18:54 26.41582 127.49624 15393 ft 339 kts 256°
2026-04-26 18:55 26.40431 127.47263 15982 ft 358 kts 233°
2026-04-26 18:55 26.38642 127.45280 16691 ft 367 kts 227°
2026-04-26 18:55 26.36738 127.43351 17411 ft 374 kts 224°
2026-04-26 18:55 26.34532 127.41744 18125 ft 387 kts 211°
2026-04-26 18:56 26.31911 127.40875 18726 ft 403 kts 192°
2026-04-26 18:56 26.29072 127.40754 19320 ft 412 kts 184°
2026-04-26 18:56 26.26195 127.40823 19880 ft 416 kts 184°
2026-04-26 18:56 26.23291 127.40902 20432 ft 419 kts 184°
2026-04-26 18:57 26.20367 127.41112 20929 ft 427 kts 176°
2026-04-26 18:57 26.18427 127.41572 21268 ft 434 kts 167°
2026-04-26 18:57 26.14745 127.43564 21912 ft 448 kts 147°
2026-04-26 18:57 26.12453 127.45949 22384 ft 456 kts 130°
2026-04-26 18:58 26.10766 127.48952 22821 ft 462 kts 114°
2026-04-26 18:58 26.09829 127.52372 23236 ft 465 kts 97°
2026-04-26 18:58 26.09727 127.55951 23635 ft 463 kts 81°
2026-04-26 18:58 26.10244 127.59479 23984 ft 463 kts 75°
2026-04-26 18:59 26.10907 127.62997 24313 ft 466 kts 74°
2026-04-26 18:59 26.11585 127.66536 24639 ft 469 kts 74°
2026-04-26 18:59 26.12256 127.70095 25000 ft 471 kts 75°
2026-04-26 18:59 26.12919 127.73669 25376 ft 472 kts 75°
2026-04-26 19:00 26.13576 127.77247 25701 ft 472 kts 75°
2026-04-26 19:00 26.14230 127.80824 26050 ft 471 kts 75°
2026-04-26 19:00 26.14876 127.84383 26492 ft 468 kts 75°
2026-04-26 19:00 26.15519 127.87931 26770 ft 469 kts 74°
2026-04-26 19:01 26.16359 127.91423 27031 ft 465 kts 64°
2026-04-26 19:01 26.17781 127.94604 27314 ft 455 kts 50°
2026-04-26 19:01 26.19778 127.97271 27647 ft 443 kts 36°
2026-04-26 19:01 26.22181 127.99332 27974 ft 432 kts 26°
2026-04-26 19:02 26.24719 128.01093 28331 ft 429 kts 23°
2026-04-26 19:02 26.27279 128.02803 28695 ft 428 kts 23°
2026-04-26 19:02 26.29821 128.04502 29185 ft 423 kts 23°
2026-04-26 19:02 26.31522 128.05644 29482 ft 422 kts 23°
2026-04-26 19:03 26.34850 128.07883 29878 ft 422 kts 23°
2026-04-26 19:03 26.37367 128.09582 30160 ft 423 kts 23°
2026-04-26 19:03 26.39914 128.11304 30424 ft 423 kts 22°
2026-04-26 19:03 26.42391 128.12983 30731 ft 421 kts 22°
2026-04-26 19:04 26.44889 128.14677 31023 ft 420 kts 22°
2026-04-26 19:04 26.47419 128.16394 31335 ft 420 kts 22°
2026-04-26 19:04 26.49905 128.18083 31686 ft 417 kts 22°
2026-04-26 19:04 26.52377 128.19763 31962 ft 416 kts 21°
2026-04-26 19:05 26.57286 128.23102 32638 ft 411 kts 21°
2026-04-26 19:05 26.59726 128.24761 32925 ft 410 kts 21°
2026-04-26 19:05 26.62162 128.26418 33193 ft 410 kts 21°
2026-04-26 19:06 26.64598 128.28077 33456 ft 410 kts 20°
2026-04-26 19:06 26.67016 128.29770 33735 ft 414 kts 24°
2026-04-26 19:06 26.69255 128.31868 34033 ft 427 kts 36°
2026-04-26 19:06 26.71222 128.34397 34273 ft 433 kts 41°
2026-04-26 19:07 26.73105 128.37036 34462 ft 435 kts 41°
2026-04-26 19:07 26.74978 128.39696 34648 ft 435 kts 41°
2026-04-26 19:07 26.76854 128.42356 34837 ft 435 kts 41°
2026-04-26 19:07 26.78735 128.45017 35047 ft 435 kts 41°
2026-04-26 19:08 26.80614 128.47671 35241 ft 435 kts 41°
2026-04-26 19:08 26.82493 128.50323 35418 ft 435 kts 41°
2026-04-26 19:08 26.84374 128.52977 35648 ft 435 kts 41°
2026-04-26 19:08 26.86246 128.55622 35896 ft 433 kts 41°
2026-04-26 19:09 26.88134 128.58240 36090 ft 429 kts 37°
2026-04-26 19:09 26.90231 128.60536 36236 ft 416 kts 27°
2026-04-26 19:09 26.92567 128.62365 36392 ft 405 kts 20°
2026-04-26 19:09 26.94983 128.63956 36551 ft 402 kts 18°
2026-04-26 19:10 26.97342 128.65445 36722 ft 401 kts 18°
2026-04-26 19:10 26.99783 128.66970 36884 ft 401 kts 17°
2026-04-26 19:10 27.02224 128.68491 36997 ft 401 kts 17°
2026-04-26 19:11 27.07090 128.71527 36976 ft 399 kts 17°
2026-04-26 19:11 27.11978 128.74577 36977 ft 399 kts 17°
2026-04-26 19:12 27.16826 128.77605 36979 ft 399 kts 17°
2026-04-26 19:12 27.21681 128.80640 36977 ft 399 kts 17°
2026-04-26 19:13 27.26513 128.83667 36972 ft 396 kts 17°
2026-04-26 19:13 27.31326 128.86682 36974 ft 396 kts 17°
2026-04-26 19:14 27.36133 128.89696 36966 ft 396 kts 17°
2026-04-26 19:14 27.40946 128.92716 36973 ft 396 kts 17°
2026-04-26 19:15 27.45742 128.95732 36968 ft 394 kts 17°
2026-04-26 19:15 27.50529 128.98744 36969 ft 394 kts 17°
2026-04-26 19:16 27.55308 129.01753 36970 ft 394 kts 17°
2026-04-26 19:16 27.59284 129.04259 36971 ft 394 kts 17°
2026-04-26 19:17 27.64068 129.07276 36971 ft 394 kts 17°
2026-04-26 19:17 27.68879 129.10315 36970 ft 394 kts 17°
2026-04-26 19:18 27.73725 129.13054 36964 ft 380 kts
2026-04-26 19:18 27.78734 129.14404 36968 ft 367 kts 359°
2026-04-26 19:19 27.83752 129.15361 36965 ft 364 kts 357°
2026-04-26 19:19 27.88741 129.16214 36972 ft 362 kts 357°
2026-04-26 19:20 27.93719 129.17032 36965 ft 362 kts 356°
2026-04-26 19:20 27.98702 129.17851 36963 ft 362 kts 357°
2026-04-26 19:21 28.03684 129.18678 36985 ft 362 kts 357°
2026-04-26 19:21 28.08653 129.19509 36961 ft 360 kts 357°
2026-04-26 19:22 28.13610 129.20337 36962 ft 360 kts 356°
2026-04-26 19:22 28.18570 129.21165 36961 ft 360 kts 357°
2026-04-26 19:23 28.23530 129.21994 36960 ft 360 kts 357°
2026-04-26 19:23 28.28484 129.22824 36954 ft 359 kts 356°
2026-04-26 19:24 28.33425 129.23653 36955 ft 359 kts 356°
2026-04-26 19:24 28.40864 129.24900 36958 ft 359 kts 356°
2026-04-26 19:25 28.44966 129.25589 36955 ft 359 kts 356°
2026-04-26 19:25 28.50743 129.26561 36952 ft 358 kts 356°
2026-04-26 19:26 28.55674 129.27391 36951 ft 358 kts 356°
2026-04-26 19:26 28.60610 129.28222 36949 ft 358 kts 356°
2026-04-26 19:27 28.65544 129.29054 36949 ft 359 kts 356°
2026-04-26 19:27 28.70485 129.29888 36950 ft 359 kts 356°
2026-04-26 19:28 28.75424 129.30722 36945 ft 359 kts 356°
2026-04-26 19:28 28.80365 129.31558 36944 ft 359 kts 356°
2026-04-26 19:29 28.85306 129.32395 36938 ft 359 kts 356°
2026-04-26 19:29 28.90250 129.33232 36953 ft 359 kts 356°
2026-04-26 19:30 28.95195 129.34071 36941 ft 359 kts 356°
2026-04-26 19:30 28.99304 129.34769 36939 ft 359 kts 356°
2026-04-26 19:31 29.05088 129.35748 36940 ft 360 kts 357°
2026-04-26 19:31 29.10040 129.36591 36941 ft 360 kts 357°
2026-04-26 19:32 29.14993 129.37436 36936 ft 360 kts 357°
2026-04-26 19:32 29.19949 129.38281 36937 ft 360 kts 357°
2026-04-26 19:33 29.24906 129.39127 36936 ft 360 kts 357°
2026-04-26 19:33 29.29863 129.39974 36934 ft 360 kts 357°
2026-04-26 19:34 29.34819 129.40821 36935 ft 360 kts 357°
2026-04-26 19:34 29.39808 129.41674 36934 ft 360 kts 357°
2026-04-26 19:35 29.44737 129.42519 36937 ft 360 kts 357°
2026-04-26 19:35 29.49726 129.43374 36936 ft 360 kts 357°
2026-04-26 19:36 29.53849 129.44081 36961 ft 360 kts 357°
2026-04-26 19:36 29.59622 129.45072 36931 ft 361 kts 357°
2026-04-26 19:37 29.64354 129.45886 36938 ft 361 kts 357°
2026-04-26 19:37 29.69354 129.46747 36943 ft 361 kts 357°
2026-04-26 19:38 29.71442 129.47107 36934 ft 361 kts 357°
2026-04-26 19:38 29.71923 129.47190 36945 ft 361 kts 357°
2026-04-26 19:39 30.05426 129.50718 31743 ft 377 kts 328°
2026-04-26 19:39 30.21372 129.36605 6626 ft 474 kts 321°
2026-04-26 19:39 30.21452 129.36531 6680 ft 468 kts 321°
2026-04-26 19:41 30.21604 129.36395 6831 ft 451 kts 322°
2026-04-26 19:41 30.21757 129.36262 7055 ft 427 kts 322°
2026-04-26 19:41 30.21901 129.36138 7343 ft 401 kts 322°
2026-04-26 19:41 30.21947 129.36100 7443 ft 394 kts 322°
2026-04-26 19:42 30.22168 129.35910 8010 ft 367 kts 323°
2026-04-26 19:42 30.22295 129.35804 8347 ft 354 kts 321°
2026-04-26 19:42 30.22418 129.35701 8678 ft 343 kts 322°
2026-04-26 19:42 30.22535 129.35600 8992 ft 334 kts 323°
2026-04-26 19:43 30.22651 129.35503 9312 ft 326 kts 319°
2026-04-26 19:43 30.22827 129.35354 9721 ft 322 kts 325°
2026-04-26 19:43 30.23267 129.34966 10293 ft 312 kts 315°
2026-04-26 19:43 30.23692 129.34590 10544 ft 306 kts 322°
2026-04-26 19:44 30.25145 129.33657 10866 ft 333 kts 334°
2026-04-26 19:44 30.30598 129.32964 12860 ft 302 kts 355°
2026-04-26 19:44 30.31170 129.32980 13850 ft 319 kts 355°
2026-04-26 19:44 30.34335 129.33045 14240 ft 362 kts 354°
2026-04-26 19:45 30.39304 129.33249 14026 ft 337 kts
2026-04-26 19:45 30.44270 129.34678 13077 ft 400 kts
2026-04-26 19:45 30.49636 129.35548 11608 ft 372 kts
2026-04-26 19:45 30.54329 129.37005 11103 ft 328 kts
2026-04-26 19:46 30.58634 129.37989 10314 ft 304 kts
2026-04-26 19:46 30.62788 129.38891 9840 ft 328 kts
2026-04-26 19:46 30.67481 129.40020 11543 ft 342 kts
2026-04-26 19:46 30.72221 129.41282 13485 ft 357 kts
2026-04-26 19:47 30.81099 129.43828 16692 ft 370 kts
2026-04-26 19:47 30.84482 129.44854 17810 ft 375 kts
2026-04-26 19:47 31.01577 129.50197 22370 ft 389 kts
2026-04-26 19:47 31.19319 129.55870 25748 ft 401 kts
2026-04-26 19:48 31.24568 129.56691 20080 ft 454 kts 334°
2026-04-26 19:48 31.24728 129.56653 19839 ft 455 kts 329°
2026-04-26 19:48 31.24855 129.56609 19713 ft 447 kts 325°
2026-04-26 19:48 31.24993 129.56548 19579 ft 436 kts 319°
2026-04-26 19:49 31.25614 129.55548 17082 ft 246 kts 278°
2026-04-26 19:49 31.25897 129.54925 13837 ft 153 kts 238°
2026-04-26 19:49 31.26019 129.54600 10069 ft 92 kts 199°
2026-04-26 19:49 31.26035 129.54537 7954 ft 80 kts 271°
2026-04-26 19:50 31.26043 129.54511 7633 ft 82 kts 250°
2026-04-26 19:50 31.26035 129.54460 7027 ft 75 kts 180°
2026-04-26 19:50 31.25996 129.54449 6127 ft 32 kts 36°
2026-04-26 19:50 31.26031 129.54394 4253 ft 86 kts 221°
2026-04-26 19:51 31.25960 129.54382 3373 ft 131 kts 115°
2026-04-26 19:51 31.25819 129.54398 3103 ft 0 kts 96°
2026-04-26 19:51 31.25902 129.54414 3098 ft 0 kts 103°
2026-04-26 19:51 31.25872 129.54882 3265 ft 270 kts 95°
2026-04-26 19:52 31.25805 129.55441 3404 ft 287 kts 95°
2026-04-26 19:52 31.25687 129.56307 3400 ft 310 kts 96°
2026-04-26 19:52 31.26281 129.61843 4616 ft 328 kts 72°
2026-04-26 19:52 31.28779 129.65320 5606 ft 299 kts 15°
2026-04-26 19:53 31.33277 129.66046 6961 ft 355 kts
2026-04-26 19:53 31.38435 129.67365 8249 ft 400 kts
2026-04-26 19:53 31.43894 129.68551 10474 ft 405 kts
2026-04-26 19:53 31.56529 129.70385 18629 ft 303 kts 352°
2026-04-26 19:54 31.65982 129.71489 19960 ft 371 kts 358°
2026-04-26 19:54 31.77430 129.72041 19173 ft 461 kts 353°
2026-04-26 19:54 31.89984 129.72237 21833 ft 448 kts 357°
2026-04-26 19:54 32.02864 129.73571 22526 ft 478 kts
2026-04-26 19:55 32.16081 129.75632 23773 ft 487 kts
2026-04-26 19:55 32.28690 129.77967 27608 ft 430 kts
2026-04-26 19:55 32.39415 129.80739 30951 ft 387 kts
2026-04-26 19:55 32.50195 129.83152 31472 ft 403 kts 359°
2026-04-26 19:56 32.58347 129.84394 32015 ft 409 kts 358°
2026-04-26 19:56 32.58964 129.84479 32052 ft 409 kts 358°
2026-04-26 19:56 32.62786 129.84984 32337 ft 411 kts 357°
2026-04-26 19:57 32.68505 129.85651 32715 ft 415 kts 356°
2026-04-26 19:57 32.74292 129.86411 32979 ft 425 kts 360°
2026-04-26 19:57 32.80198 129.87537 33129 ft 434 kts
2026-04-26 19:57 32.86161 129.88787 33672 ft 424 kts 358°
2026-04-26 19:58 32.91846 129.89370 34737 ft 405 kts 356°
2026-04-26 19:58 32.97413 129.89949 35319 ft 399 kts 356°
2026-04-26 19:58 33.02934 129.90549 35716 ft 399 kts 357°
2026-04-26 19:58 33.08462 129.91166 36129 ft 398 kts 357°
2026-04-26 19:59 33.13864 129.91792 36230 ft 375 kts 357°
2026-04-26 19:59 33.18245 129.92069 36221 ft 356 kts 347°
2026-04-26 19:59 33.22301 129.91264 36231 ft 357 kts 340°
2026-04-26 20:00 33.24740 129.90638 35926 ft 358 kts 340°
2026-04-26 20:00 33.27166 129.90009 35290 ft 356 kts 340°
2026-04-26 20:00 33.29624 129.89371 34558 ft 357 kts 340°
2026-04-26 20:00 33.32139 129.88720 33584 ft 359 kts 340°
2026-04-26 20:01 33.37013 129.87463 31379 ft 358 kts 340°
2026-04-26 20:01 33.41865 129.86213 29182 ft 354 kts 340°
2026-04-26 20:01 33.46502 129.85072 27024 ft 355 kts 345°
2026-04-26 20:01 33.49003 129.85084 25957 ft 367 kts
2026-04-26 20:02 33.51509 129.85794 24929 ft 372 kts
2026-04-26 20:02 33.53988 129.86685 23932 ft 371 kts 10°
2026-04-26 20:02 33.56456 129.87595 22843 ft 370 kts 10°
2026-04-26 20:02 33.58085 129.88192 22093 ft 368 kts 10°
2026-04-26 20:03 33.61339 129.89375 20643 ft 363 kts 10°
2026-04-26 20:03 33.63746 129.90243 19604 ft 359 kts 11°
2026-04-26 20:03 33.66126 129.91099 18646 ft 354 kts 11°
2026-04-26 20:03 33.68440 129.91932 17990 ft 340 kts 11°
2026-04-26 20:04 33.70689 129.92739 17662 ft 336 kts 11°
2026-04-26 20:04 33.72931 129.93539 17483 ft 337 kts 11°
2026-04-26 20:04 33.75170 129.94340 17288 ft 334 kts 11°
2026-04-26 20:04 33.77397 129.95098 17103 ft 330 kts
2026-04-26 20:05 33.79652 129.95466 16919 ft 325 kts 359°
2026-04-26 20:05 33.81900 129.95664 16514 ft 323 kts 358°
2026-04-26 20:05 33.84138 129.95834 15975 ft 321 kts 358°
2026-04-26 20:05 33.86357 129.96008 15471 ft 319 kts
2026-04-26 20:06 33.88532 129.96606 15021 ft 323 kts 17°
2026-04-26 20:06 33.90585 129.97713 14561 ft 323 kts 21°
2026-04-26 20:06 33.92593 129.98917 14106 ft 321 kts 22°
2026-04-26 20:06 33.94583 130.00123 13664 ft 319 kts 22°
2026-04-26 20:07 33.96556 130.01314 13162 ft 316 kts 23°
2026-04-26 20:07 33.98403 130.02749 12678 ft 317 kts 38°
2026-04-26 20:07 33.99938 130.04646 12191 ft 315 kts 45°
2026-04-26 20:07 34.01356 130.06647 11717 ft 313 kts 50°
2026-04-26 20:08 34.02453 130.08907 11246 ft 314 kts 65°
2026-04-26 20:08 34.03141 130.11399 10780 ft 313 kts 72°
2026-04-26 20:08 34.03685 130.13936 10324 ft 310 kts 74°
2026-04-26 20:08 34.04183 130.16451 9870 ft 308 kts 74°
2026-04-26 20:09 34.04667 130.18952 9391 ft 305 kts 75°
2026-04-26 20:09 34.05142 130.21435 8891 ft 302 kts 75°
2026-04-26 20:09 34.05608 130.23885 8401 ft 298 kts 75°
2026-04-26 20:09 34.06066 130.26302 8052 ft 294 kts 75°
2026-04-26 20:10 34.06520 130.28700 7974 ft 293 kts 75°
2026-04-26 20:10 34.06966 130.31094 7979 ft 293 kts 77°
2026-04-26 20:10 34.07067 130.33543 7973 ft 295 kts 97°
2026-04-26 20:10 34.06321 130.35778 7973 ft 282 kts 126°
2026-04-26 20:11 34.04929 130.37363 7783 ft 273 kts 151°
2026-04-26 20:11 34.03127 130.37899 7587 ft 268 kts 184°
2026-04-26 20:11 34.01298 130.37547 7386 ft 266 kts 195°
2026-04-26 20:12 33.97765 130.36409 6987 ft 257 kts 197°
2026-04-26 20:12 33.96047 130.35834 6802 ft 255 kts 197°
2026-04-26 20:12 33.94340 130.35266 6610 ft 255 kts 197°
2026-04-26 20:12 33.92631 130.34700 6417 ft 254 kts 197°
2026-04-26 20:13 33.90929 130.34139 6218 ft 254 kts 196°
2026-04-26 20:13 33.89250 130.33587 6006 ft 245 kts 197°
2026-04-26 20:13 33.87626 130.33054 5800 ft 240 kts 197°
2026-04-26 20:13 33.86018 130.32525 5603 ft 239 kts 197°
2026-04-26 20:14 33.84415 130.31999 5397 ft 238 kts 197°
2026-04-26 20:14 33.82816 130.31474 5136 ft 238 kts 197°
2026-04-26 20:14 33.81215 130.30998 4784 ft 237 kts 190°
2026-04-26 20:14 33.79568 130.31064 4429 ft 238 kts 171°
2026-04-26 20:15 33.78002 130.31686 4087 ft 238 kts 155°
2026-04-26 20:15 33.76549 130.32676 3741 ft 246 kts 150°
2026-04-26 20:15 33.75045 130.33749 3455 ft 256 kts 150°
2026-04-26 20:15 33.73509 130.34819 3158 ft 254 kts 152°
2026-04-26 20:16 33.71953 130.35881 2803 ft 254 kts 152°
2026-04-26 20:16 33.70453 130.36913 2455 ft 243 kts 152°
2026-04-26 20:16 33.69031 130.37893 2143 ft 228 kts 152°
2026-04-26 20:16 33.67701 130.38806 1850 ft 213 kts 153°
2026-04-26 20:17 33.66368 130.39231 1567 ft 191 kts 193°
2026-04-26 20:17 33.65456 130.38388 1619 ft 152 kts 253°
2026-04-26 20:17 33.65671 130.37262 1672 ft 144 kts 316°
2026-04-26 20:17 33.66286 130.37013 1605 ft 147 kts
2026-04-26 20:18 33.66991 130.38240 1883 ft 157 kts 104°
2026-04-26 20:18 33.66295 130.39251 2158 ft 169 kts 135°
2026-04-26 20:18 33.65527 130.40383 1630 ft 177 kts 145°
2026-04-26 20:18 33.64467 130.41094 1090 ft 171 kts 150°
2026-04-26 20:19 33.63491 130.41782 830 ft 154 kts 150°
2026-04-26 20:19 33.62580 130.42370 650 ft 146 kts 153°
2026-04-26 20:19 33.61698 130.42951 498 ft 145 kts 151°
2026-04-26 20:19 33.61122 130.43354 392 ft 145 kts 149°
2026-04-26 20:20 33.60805 130.43569 322 ft 145 kts 150°
2026-04-26 20:20 33.59936 130.44183 175 ft 145 kts 154°
2026-04-26 20:20 33.59062 130.44759 50 ft 140 kts 151°
2026-04-26 20:20 33.58295 130.45277 35 ft 111 kts 150°
2026-04-26 20:21 33.57917 130.45419 38 ft 19 kts 179°
2026-04-26 20:21 33.57856 130.45378 38 ft 11 kts 248°
2026-04-26 20:21 33.57927 130.45174 37 ft 37 kts 322°
2026-04-26 20:21 33.58064 130.45083 37 ft 7 kts 331°
2026-04-26 20:22 33.58094 130.45063 36 ft 8 kts 330°
2026-04-26 20:22 33.58209 130.44985 35 ft 21 kts 330°
2026-04-26 20:22 33.58294 130.44915 34 ft 13 kts 311°
2026-04-26 20:22 33.58328 130.44820 34 ft 13 kts 287°
2026-04-26 20:23 33.58325 130.44759 35 ft 1 kts 242°
2026-04-26 20:23 33.58325 130.44760 35 ft 0 kts 243°
2026-04-26 20:23 33.58325 130.44759 35 ft 0 kts 242°